CDT,Max TemperatureF,Mean TemperatureF,Min TemperatureF,Max Dew PointF,MeanDew PointF,Min DewpointF,Max Humidity, Mean Humidity, Min Humidity, Max Sea Level PressureIn, Mean Sea Level PressureIn, Min Sea Level PressureIn, Max VisibilityMiles, Mean VisibilityMiles, Min VisibilityMiles, Max Wind SpeedMPH, Mean Wind SpeedMPH, Max Gust SpeedMPH,PrecipitationIn, CloudCover, Events, WindDirDegrees
2013-6-1,87,80,73,77,73,70,100,80,55,30.03,30.00,29.97,10,8,4,16,6,21,0.00,5,,135
2013-6-2,89,79,69,77,71,66,100,77,46,30.00,29.95,29.89,10,8,0,14,3,18,0.01,2,Fog-Rain,170
2013-6-3,87,78,68,77,72,68,100,83,58,29.95,29.91,29.86,10,8,0,9,1,,0.22,3,Fog-Rain,219
2013-6-4,89,80,71,77,73,70,100,79,55,29.97,29.94,29.90,10,8,1,14,3,18,0.02,3,Rain,140
2013-6-5,89,79,69,77,72,68,100,76,52,29.96,29.92,29.86,10,9,2,16,7,24,0.15,4,Rain,116
2013-6-6,89,78,68,70,68,64,100,76,52,29.90,29.80,29.73,10,9,5,10,5,16,0.00,1,Rain,2
2013-6-7,84,76,69,72,71,68,100,81,62,29.91,29.84,29.78,10,9,4,9,3,9,0.00,2,Rain,251
2013-6-8,87,78,69,77,72,70,100,78,55,30.04,29.97,29.90,10,7,1,13,3,20,0.51,3,Rain,162
2013-6-9,78,74,71,75,72,70,100,91,78,30.07,30.01,29.96,10,8,0,22,7,30,1.47,5,Rain,134
2013-6-10,82,78,73,79,75,68,100,89,70,30.10,30.04,29.99,10,6,1,9,4,22,2.74,3,Rain,169
2013-6-11,89,81,73,77,76,72,100,78,55,30.11,30.06,30.03,10,8,1,9,3,,0.00,1,,225
2013-6-12,91,82,73,79,76,72,100,80,55,30.11,30.07,30.02,10,8,0,12,3,,0.00,1,Fog,245
2013-6-13,89,84,78,79,75,70,94,73,55,30.06,29.98,29.89,10,8,5,12,4,20,0.00,0,,241
2013-6-14,91,84,77,79,73,64,94,69,41,29.96,29.90,29.87,10,8,4,13,5,16,0.03,2,Rain,320
2013-6-15,91,81,71,79,72,64,94,72,49,30.03,29.99,29.94,10,7,4,12,4,,0.00,3,,105
2013-6-16,91,82,73,79,77,73,100,81,59,30.07,30.03,30.00,10,6,0,12,2,17,0.00,4,Fog-Rain,166
2013-6-17,89,84,78,79,75,72,89,74,62,30.04,30.00,29.97,10,9,7,12,6,21,0.04,3,Rain,224
2013-6-18,87,82,77,77,74,70,94,73,58,30.04,29.97,29.92,10,8,1,14,7,21,0.68,3,Rain,225
2013-6-19,87,78,69,77,73,70,100,82,58,30.05,30.00,29.95,10,7,1,10,3,18,1.08,1,Rain,303
2013-6-20,91,82,73,77,73,68,100,79,46,30.11,30.07,30.02,10,7,3,9,1,,0.00,3,,313
2013-6-21,89,81,73,77,73,70,100,82,52,30.13,30.10,30.06,10,8,3,20,3,26,0.01,1,Rain,67
2013-6-22,91,81,71,75,72,68,100,78,46,30.13,30.08,30.02,10,9,4,9,3,,0.00,1,,89
2013-6-23,87,79,71,79,74,72,100,87,62,30.11,30.08,30.04,10,8,2,13,2,18,0.81,3,Rain,117
2013-6-24,87,80,73,77,75,72,100,82,58,30.17,30.13,30.09,10,7,1,10,3,,2.34,2,Rain,176
2013-6-25,89,80,71,77,74,72,100,79,55,30.15,30.10,30.05,10,8,4,9,2,,0.00,1,,168
2013-6-26,87,79,71,77,75,72,100,80,62,30.09,30.04,29.99,10,8,4,12,2,,0.00,2,,202
2013-6-27,91,86,80,79,77,73,89,75,55,30.03,29.99,29.93,10,9,5,8,4,,0.00,2,,243
2013-6-28,93,88,84,82,79,73,94,74,52,29.94,29.87,29.78,10,8,5,13,7,18,0.00,0,,245
2013-6-29,87,82,77,81,74,70,84,72,62,29.81,29.76,29.70,10,8,5,12,5,20,0.00,2,Rain,245
2013-6-30,89,80,71,75,72,66,100,77,46,29.78,29.74,29.71,10,9,5,7,1,,0.00,2,,274